Time,TemperatureF,DewpointF,PressureIn,WindDirection,WindDirectionDegrees,WindSpeedMPH,WindSpeedGustMPH,Humidity,HourlyPrecipIn,Conditions,Clouds,dailyrainin,SoftwareType,DateUTC
2013-03-24 00:03:00,30.6,29.0,30.02,NE,40,1.0,2.0,92,0.00,,,0.00,weatherlink.com 1.10,2013-03-24 05:03:00,
2013-03-24 00:18:00,30.5,29.0,30.01,NNE,26,2.0,4.0,93,0.00,,,0.00,weatherlink.com 1.10,2013-03-24 05:18:00,
2013-03-24 00:33:00,30.2,29.0,30.01,NE,53,0.0,1.0,93,0.00,,,0.00,weatherlink.com 1.10,2013-03-24 05:33:00,
2013-03-24 00:48:00,29.7,28.0,30.00,NNE,25,2.0,4.0,93,0.00,,,0.00,weatherlink.com 1.10,2013-03-24 05:48:00,
2013-03-24 01:03:00,29.4,28.0,30.00,NNE,26,1.0,3.0,93,0.00,,,0.00,weatherlink.com 1.10,2013-03-24 06:03:00,
2013-03-24 01:18:00,29.4,28.0,29.99,NE,41,0.0,1.0,94,0.00,,,0.00,weatherlink.com 1.10,2013-03-24 06:18:00,
2013-03-24 01:33:00,29.3,28.0,29.99,NE,41,1.0,3.0,94,0.00,,,0.00,weatherlink.com 1.10,2013-03-24 06:33:00,
2013-03-24 01:48:00,29.3,28.0,30.00,NNE,33,0.0,1.0,94,0.00,,,0.00,weatherlink.com 1.10,2013-03-24 06:48:00,
2013-03-24 02:03:00,29.2,28.0,29.99,ENE,63,1.0,3.0,94,0.00,,,0.00,weatherlink.com 1.10,2013-03-24 07:03:00,
2013-03-24 02:18:00,29.1,28.0,29.99,NE,34,1.0,3.0,94,0.00,,,0.00,weatherlink.com 1.10,2013-03-24 07:18:00,
2013-03-24 02:33:00,29.0,28.0,29.99,ENE,72,0.0,3.0,94,0.00,,,0.00,weatherlink.com 1.10,2013-03-24 07:33:00,
2013-03-24 02:48:00,29.0,28.0,29.97,ENE,70,0.0,5.0,94,0.00,,,0.00,weatherlink.com 1.10,2013-03-24 07:48:00,
2013-03-24 03:04:00,28.9,27.0,29.97,NE,46,1.0,3.0,94,0.00,,,0.00,weatherlink.com 1.10,2013-03-24 08:04:00,
2013-03-24 03:19:00,28.9,27.0,29.97,NE,39,2.0,3.0,94,0.00,,,0.00,weatherlink.com 1.10,2013-03-24 08:19:00,
2013-03-24 03:34:00,28.8,27.0,29.95,NE,55,0.0,2.0,94,0.00,,,0.00,weatherlink.com 1.10,2013-03-24 08:34:00,
2013-03-24 03:49:00,28.8,27.0,29.94,NNE,20,0.0,1.0,94,0.00,,,0.00,weatherlink.com 1.10,2013-03-24 08:49:00,
2013-03-24 04:04:00,28.6,27.0,29.93,NE,36,1.0,1.0,94,0.00,,,0.00,weatherlink.com 1.10,2013-03-24 09:04:00,
2013-03-24 04:19:00,28.5,27.0,29.91,NNE,12,0.0,2.0,94,0.00,,,0.00,weatherlink.com 1.10,2013-03-24 09:19:00,
2013-03-24 04:34:00,28.4,27.0,29.90,NE,44,0.0,3.0,94,0.00,,,0.00,weatherlink.com 1.10,2013-03-24 09:34:00,
2013-03-24 04:49:00,28.3,27.0,29.90,NNE,30,0.0,4.0,94,0.00,,,0.00,weatherlink.com 1.10,2013-03-24 09:49:00,
2013-03-24 05:04:00,28.3,27.0,29.90,NE,36,1.0,2.0,94,0.00,,,0.00,weatherlink.com 1.10,2013-03-24 10:04:00,
2013-03-24 05:19:00,28.4,27.0,29.91,NE,47,0.0,2.0,94,0.00,,,0.00,weatherlink.com 1.10,2013-03-24 10:19:00,
2013-03-24 05:34:00,28.4,27.0,29.91,NE,43,0.0,4.0,94,0.00,,,0.00,weatherlink.com 1.10,2013-03-24 10:34:00,
2013-03-24 05:49:00,28.5,27.0,29.91,NE,39,0.0,2.0,94,0.00,,,0.00,weatherlink.com 1.10,2013-03-24 10:49:00,
2013-03-24 06:04:00,28.5,27.0,29.91,NE,43,0.0,1.0,94,0.00,,,0.00,weatherlink.com 1.10,2013-03-24 11:04:00,
2013-03-24 06:19:00,28.5,27.0,29.88,NE,36,1.0,3.0,94,0.00,,,0.00,weatherlink.com 1.10,2013-03-24 11:19:00,
2013-03-24 06:34:00,28.4,27.0,29.89,NNE,12,0.0,2.0,94,0.00,,,0.00,weatherlink.com 1.10,2013-03-24 11:34:00,
2013-03-24 06:49:00,28.4,27.0,29.88,NNE,23,0.0,0.0,94,0.00,,,0.00,weatherlink.com 1.10,2013-03-24 11:49:00,
2013-03-24 07:04:00,28.4,27.0,29.87,NNE,27,0.0,1.0,94,0.00,,,0.00,weatherlink.com 1.10,2013-03-24 12:04:00,
2013-03-24 07:19:00,28.4,27.0,29.86,NNE,29,0.0,2.0,95,0.00,,,0.00,weatherlink.com 1.10,2013-03-24 12:19:00,
2013-03-24 07:34:00,28.7,28.0,29.86,NNE,29,0.0,3.0,95,0.00,,,0.00,weatherlink.com 1.10,2013-03-24 12:34:00,
2013-03-24 07:49:00,28.8,28.0,29.84,ENE,63,3.0,4.0,95,0.00,,,0.00,weatherlink.com 1.10,2013-03-24 12:49:00,
2013-03-24 08:04:00,28.9,27.0,29.81,NNE,15,3.0,5.0,94,0.00,,,0.00,weatherlink.com 1.10,2013-03-24 13:04:00,
2013-03-24 08:19:00,29.0,28.0,29.80,NNE,29,3.0,5.0,94,0.00,,,0.00,weatherlink.com 1.10,2013-03-24 13:19:00,
2013-03-24 08:34:00,29.3,28.0,29.81,NNE,15,2.0,4.0,94,0.00,,,0.00,weatherlink.com 1.10,2013-03-24 13:34:00,
2013-03-24 08:49:00,29.4,28.0,29.81,North,355,0.0,5.0,94,0.00,,,0.00,weatherlink.com 1.10,2013-03-24 13:49:00,
2013-03-24 09:04:00,29.5,28.0,29.81,NNE,33,2.0,4.0,94,0.00,,,0.00,weatherlink.com 1.10,2013-03-24 14:04:00,
2013-03-24 09:19:00,29.6,28.0,29.80,NNW,347,2.0,5.0,94,0.00,,,0.00,weatherlink.com 1.10,2013-03-24 14:19:00,
2013-03-24 09:34:00,29.6,28.0,29.80,NNE,22,1.0,4.0,93,0.00,,,0.00,weatherlink.com 1.10,2013-03-24 14:34:00,
2013-03-24 09:49:00,29.8,28.0,29.80,NNE,15,0.0,4.0,93,0.00,,,0.00,weatherlink.com 1.10,2013-03-24 14:49:00,
2013-03-24 10:04:00,29.9,28.0,29.81,NE,46,2.0,2.0,93,0.00,,,0.00,weatherlink.com 1.10,2013-03-24 15:04:00,
2013-03-24 10:19:00,30.0,28.0,29.81,ENE,66,0.0,3.0,93,0.00,,,0.00,weatherlink.com 1.10,2013-03-24 15:19:00,
2013-03-24 10:34:00,30.4,29.0,29.82,NE,34,1.0,2.0,93,0.00,,,0.00,weatherlink.com 1.10,2013-03-24 15:34:00,
2013-03-24 10:49:00,30.7,29.0,29.81,NNE,20,0.0,2.0,93,0.00,,,0.00,weatherlink.com 1.10,2013-03-24 15:49:00,
2013-03-24 11:04:00,31.1,29.0,29.81,NNE,13,0.0,0.0,93,0.00,,,0.00,weatherlink.com 1.10,2013-03-24 16:04:00,
2013-03-24 11:19:00,31.3,30.0,29.80,North,8,0.0,1.0,93,0.00,,,0.00,weatherlink.com 1.10,2013-03-24 16:19:00,
2013-03-24 11:34:00,31.5,30.0,29.79,NNE,16,0.0,0.0,93,0.00,,,0.00,weatherlink.com 1.10,2013-03-24 16:34:00,
2013-03-24 11:49:00,31.8,30.0,29.79,North,11,0.0,0.0,93,0.00,,,0.00,weatherlink.com 1.10,2013-03-24 16:49:00,
2013-03-24 12:05:00,32.5,31.0,29.78,NNE,15,0.0,0.0,93,0.00,,,0.00,weatherlink.com 1.10,2013-03-24 17:05:00,
2013-03-24 12:20:00,33.0,31.0,29.78,NNE,16,0.0,0.0,93,0.00,,,0.00,weatherlink.com 1.10,2013-03-24 17:20:00,
2013-03-24 12:35:00,33.0,31.0,29.77,North,351,0.0,0.0,93,0.00,,,0.00,weatherlink.com 1.10,2013-03-24 17:35:00,
2013-03-24 12:50:00,33.1,31.0,29.76,North,4,0.0,0.0,92,0.00,,,0.00,weatherlink.com 1.10,2013-03-24 17:50:00,
2013-03-24 13:05:00,33.3,31.0,29.75,North,5,0.0,0.0,92,0.00,,,0.00,weatherlink.com 1.10,2013-03-24 18:05:00,
2013-03-24 13:20:00,33.2,31.0,29.75,North,6,0.0,0.0,92,0.00,,,0.00,weatherlink.com 1.10,2013-03-24 18:20:00,
2013-03-24 13:35:00,33.3,31.0,29.74,NNE,19,0.0,0.0,92,0.00,,,0.00,weatherlink.com 1.10,2013-03-24 18:35:00,
2013-03-24 13:50:00,33.6,31.0,29.73,North,9,0.0,0.0,91,0.00,,,0.00,weatherlink.com 1.10,2013-03-24 18:50:00,
2013-03-24 14:05:00,33.9,32.0,29.72,NNE,20,0.0,0.0,91,0.00,,,0.00,weatherlink.com 1.10,2013-03-24 19:05:00,
2013-03-24 14:20:00,34.2,32.0,29.72,North,8,0.0,0.0,91,0.00,,,0.00,weatherlink.com 1.10,2013-03-24 19:20:00,
2013-03-24 14:35:00,33.7,31.0,29.71,NNE,16,1.0,3.0,89,0.00,,,0.00,weatherlink.com 1.10,2013-03-24 19:35:00,
2013-03-24 14:50:00,32.3,30.0,29.71,NNE,26,3.0,5.0,92,0.00,,,0.00,weatherlink.com 1.10,2013-03-24 19:50:00,
2013-03-24 15:05:00,32.1,30.0,29.71,North,6,2.0,5.0,93,0.00,,,0.00,weatherlink.com 1.10,2013-03-24 20:05:00,
2013-03-24 15:20:00,32.1,31.0,29.71,NNE,23,4.0,6.0,94,0.00,,,0.00,weatherlink.com 1.10,2013-03-24 20:20:00,
2013-03-24 15:35:00,32.2,31.0,29.70,NNE,22,2.0,6.0,94,0.00,,,0.00,weatherlink.com 1.10,2013-03-24 20:35:00,
2013-03-24 15:50:00,32.4,31.0,29.71,NNE,22,4.0,5.0,94,0.01,,,0.01,weatherlink.com 1.10,2013-03-24 20:50:00,
2013-03-24 16:05:00,32.3,31.0,29.71,NNE,12,3.0,6.0,94,0.01,,,0.01,weatherlink.com 1.10,2013-03-24 21:05:00,
2013-03-24 16:20:00,32.3,31.0,29.72,NNE,12,3.0,6.0,94,0.01,,,0.01,weatherlink.com 1.10,2013-03-24 21:20:00,
2013-03-24 16:35:00,32.4,31.0,29.73,NNE,18,3.0,5.0,95,0.02,,,0.02,weatherlink.com 1.10,2013-03-24 21:35:00,
2013-03-24 16:50:00,32.3,31.0,29.73,NNE,16,4.0,5.0,95,0.01,,,0.02,weatherlink.com 1.10,2013-03-24 21:50:00,
2013-03-24 17:05:00,32.3,31.0,29.74,NNE,27,3.0,5.0,95,0.01,,,0.02,weatherlink.com 1.10,2013-03-24 22:05:00,
2013-03-24 17:20:00,32.1,31.0,29.74,NNE,15,2.0,4.0,95,0.01,,,0.02,weatherlink.com 1.10,2013-03-24 22:20:00,
2013-03-24 17:35:00,31.8,31.0,29.74,North,11,2.0,5.0,95,0.01,,,0.03,weatherlink.com 1.10,2013-03-24 22:35:00,
2013-03-24 17:50:00,31.7,31.0,29.75,NNE,33,3.0,4.0,95,0.01,,,0.03,weatherlink.com 1.10,2013-03-24 22:50:00,
2013-03-24 18:05:00,31.4,30.0,29.76,North,351,2.0,5.0,95,0.01,,,0.03,weatherlink.com 1.10,2013-03-24 23:05:00,
2013-03-24 18:20:00,31.1,30.0,29.76,North,356,3.0,4.0,95,0.01,,,0.03,weatherlink.com 1.10,2013-03-24 23:20:00,
2013-03-24 18:35:00,30.9,30.0,29.77,North,8,3.0,5.0,95,0.00,,,0.03,weatherlink.com 1.10,2013-03-24 23:35:00,
2013-03-24 18:50:00,30.7,30.0,29.77,WNW,293,4.0,5.0,95,0.00,,,0.03,weatherlink.com 1.10,2013-03-24 23:50:00,
2013-03-24 19:05:00,30.3,29.0,29.78,NNW,328,2.0,5.0,95,0.00,,,0.03,weatherlink.com 1.10,2013-03-25 00:05:00,
2013-03-24 19:20:00,30.1,29.0,29.78,North,8,2.0,3.0,95,0.00,,,0.03,weatherlink.com 1.10,2013-03-25 00:20:00,
2013-03-24 19:35:00,29.9,29.0,29.79,NNE,13,3.0,4.0,95,0.00,,,0.03,weatherlink.com 1.10,2013-03-25 00:35:00,
2013-03-24 19:50:00,29.8,29.0,29.79,North,8,2.0,4.0,95,0.00,,,0.03,weatherlink.com 1.10,2013-03-25 00:50:00,
2013-03-24 20:05:00,29.6,28.0,29.80,North,356,2.0,5.0,95,0.00,,,0.03,weatherlink.com 1.10,2013-03-25 01:05:00,
2013-03-24 20:20:00,29.6,28.0,29.81,NNW,328,2.0,6.0,95,0.00,,,0.03,weatherlink.com 1.10,2013-03-25 01:20:00,
2013-03-24 20:35:00,29.4,28.0,29.81,North,5,3.0,4.0,95,0.00,,,0.03,weatherlink.com 1.10,2013-03-25 01:35:00,
2013-03-24 20:50:00,29.4,28.0,29.81,NNE,29,2.0,4.0,95,0.00,,,0.03,weatherlink.com 1.10,2013-03-25 01:50:00,
2013-03-24 21:05:00,29.3,28.0,29.82,North,357,2.0,3.0,95,0.00,,,0.03,weatherlink.com 1.10,2013-03-25 02:05:00,
2013-03-24 21:20:00,29.3,28.0,29.82,NNW,344,1.0,3.0,95,0.00,,,0.03,weatherlink.com 1.10,2013-03-25 02:20:00,
2013-03-24 21:35:00,29.2,28.0,29.82,North,358,2.0,3.0,95,0.00,,,0.03,weatherlink.com 1.10,2013-03-25 02:35:00,
2013-03-24 21:50:00,29.1,28.0,29.82,North,353,2.0,4.0,95,0.00,,,0.03,weatherlink.com 1.10,2013-03-25 02:50:00,
2013-03-24 22:05:00,28.9,28.0,29.82,NW,325,2.0,3.0,95,0.00,,,0.03,weatherlink.com 1.10,2013-03-25 03:05:00,
2013-03-24 22:20:00,28.9,28.0,29.82,North,354,2.0,3.0,96,0.00,,,0.03,weatherlink.com 1.10,2013-03-25 03:20:00,
2013-03-24 22:35:00,29.0,28.0,29.82,NNW,338,1.0,5.0,96,0.00,,,0.03,weatherlink.com 1.10,2013-03-25 03:35:00,
2013-03-24 22:50:00,28.9,28.0,29.83,NNW,346,1.0,2.0,96,0.00,,,0.03,weatherlink.com 1.10,2013-03-25 03:50:00,
2013-03-24 23:05:00,28.9,28.0,29.83,North,4,2.0,3.0,96,0.00,,,0.03,weatherlink.com 1.10,2013-03-25 04:05:00,
2013-03-24 23:20:00,28.8,28.0,29.83,NNW,337,1.0,3.0,96,0.00,,,0.03,weatherlink.com 1.10,2013-03-25 04:20:00,
2013-03-24 23:35:00,28.8,28.0,29.83,North,4,2.0,10.0,96,0.00,,,0.03,weatherlink.com 1.10,2013-03-25 04:35:00,
2013-03-24 23:50:00,28.7,28.0,29.83,NNW,339,1.0,4.0,95,0.00,,,0.03,weatherlink.com 1.10,2013-03-25 04:50:00,